This is the latest recevied weather packets stored in our database for station/object K0APR. If no packets are shown the sender has not sent any weather packets the latest 10 day(s).
| Time | Temp. | Humidity | Pressure | Rain* | Wind** | Luminosity | Snow |
|---|---|---|---|---|---|---|---|
| 1777497373 | 13.33° C | 41% | 1016.8 hPa | 0 mm | - | 105 W/m² | - |
| 1777497069 | 13.33° C | 39% | 1016.5 hPa | 0 mm | - | 103 W/m² | - |
| 1777496765 | 13.33° C | 39% | 1016.5 hPa | 0 mm | - | 114 W/m² | - |
| 1777496462 | 13.89° C | 39% | 1016.8 hPa | 0 mm | - | 175 W/m² | - |
| 1777496159 | 13.89° C | 41% | 1016.8 hPa | 0 mm | - | 229 W/m² | - |
| 1777495855 | 13.89° C | 38% | 1016.5 hPa | 0 mm | - | 292 W/m² | - |
| 1777495551 | 13.89° C | 36% | 1016.8 hPa | 0 mm | - | 302 W/m² | - |
| 1777495247 | 13.89° C | 40% | 1016.8 hPa | 0 mm | - | 597 W/m² | - |
| 1777494945 | 13.33° C | 39% | 1016.8 hPa | 0 mm | - | 585 W/m² | - |
| 1777494642 | 13.33° C | 39% | 1017.2 hPa | 0 mm | - | 343 W/m² | - |
| 1777494339 | 13.33° C | 39% | 1017.2 hPa | 0 mm | - | 321 W/m² | - |
| 1777494035 | 13.33° C | 42% | 1016.8 hPa | 0 mm | - | 273 W/m² | - |
| 1777493733 | 13.33° C | 40% | 1017.2 hPa | 0 mm | - | 346 W/m² | - |
| 1777493431 | 13.33° C | 40% | 1017.2 hPa | 0 mm | - | 254 W/m² | - |
| 1777493127 | 13.33° C | 40% | 1017.2 hPa | 0 mm | - | 256 W/m² | - |
| 1777492824 | 13.33° C | 40% | 1017.2 hPa | 0 mm | - | 213 W/m² | - |
| 1777492520 | 12.78° C | 40% | 1017.2 hPa | 0 mm | - | 143 W/m² | - |
| 1777492216 | 12.78° C | 38% | 1017.2 hPa | 0 mm | - | 107 W/m² | - |
| 1777491914 | 13.33° C | 39% | 1017.2 hPa | 0 mm | - | 133 W/m² | - |
| 1777491609 | 13.33° C | 38% | 1017.2 hPa | 0 mm | - | 206 W/m² | - |
| 1777491307 | 13.89° C | 38% | 1017.2 hPa | 0 mm | - | 391 W/m² | - |
| 1777491004 | 14.44° C | 41% | 1017.2 hPa | 0 mm | - | 467 W/m² | - |
| 1777490699 | 12.78° C | 39% | 1017.5 hPa | 0 mm | - | 800 W/m² | - |
| 1777490396 | 12.78° C | 41% | 1017.5 hPa | 0 mm | - | 277 W/m² | - |
| 1777490093 | 13.33° C | 42% | 1017.5 hPa | 0 mm | - | 334 W/m² | - |
* Rain latest hour (hover to see other rain measurements)
** Current wind speed in m/s (hover to see current wind gust speed)